This is the latest recevied weather packets stored in our database for station/object PD2BVG. If no packets are shown the sender has not sent any weather packets the latest 10 day(s).
| Time | Temp. | Humidity | Pressure | Rain* | Wind** | Luminosity | Snow |
|---|---|---|---|---|---|---|---|
| 1788018604 | 18.89° C | 96% | 1006.7 hPa | 0.25 mm | - | 88 W/m² | - |
| 1788018544 | 18.89° C | 96% | 1006.7 hPa | 0.25 mm | - | 90 W/m² | - |
| 1788018483 | 18.89° C | 96% | 1006.7 hPa | 0.25 mm | - | 85 W/m² | - |
| 1788018423 | 18.89° C | 96% | 1006.8 hPa | 0.25 mm | - | 72 W/m² | - |
| 1788018363 | 18.89° C | 95% | 1006.8 hPa | 0.25 mm | - | 65 W/m² | - |
| 1788018303 | 18.89° C | 95% | 1006.8 hPa | 0.25 mm | - | 67 W/m² | - |
| 1788018243 | 18.89° C | 95% | 1006.8 hPa | 0.25 mm | - | 83 W/m² | - |
| 1788018181 | 18.89° C | 95% | 1006.8 hPa | 0.25 mm | - | 72 W/m² | - |
| 1788018122 | 18.89° C | 95% | 1006.8 hPa | 0.25 mm | - | 63 W/m² | - |
| 1788018062 | 18.89° C | 95% | 1006.8 hPa | 0.25 mm | - | 63 W/m² | - |
| 1788018005 | 18.89° C | 95% | 1006.9 hPa | 0.25 mm | - | 69 W/m² | - |
| 1788017943 | 18.89° C | 95% | 1006.9 hPa | 0.25 mm | - | 86 W/m² | - |
| 1788017882 | 18.89° C | 95% | 1007 hPa | 0.25 mm | - | 85 W/m² | - |
| 1788017821 | 18.89° C | 95% | 1007 hPa | 0.25 mm | - | 70 W/m² | - |
| 1788017762 | 18.89° C | 95% | 1007 hPa | 0.25 mm | - | 72 W/m² | - |
| 1788017702 | 18.89° C | 95% | 1007.1 hPa | 0.25 mm | - | 76 W/m² | - |
| 1788017641 | 18.89° C | 95% | 1006.9 hPa | 0.25 mm | - | 88 W/m² | - |
| 1788017581 | 18.89° C | 95% | 1007 hPa | 0.25 mm | - | 88 W/m² | - |
| 1788017521 | 18.89° C | 95% | 1007 hPa | 0.25 mm | - | 88 W/m² | - |
| 1788017461 | 18.89° C | 95% | 1006.9 hPa | 0.25 mm | - | 88 W/m² | - |
| 1788017401 | 18.89° C | 95% | 1007.1 hPa | 0.25 mm | - | 118 W/m² | - |
| 1788017341 | 18.89° C | 95% | 1007 hPa | 0.25 mm | - | 150 W/m² | - |
| 1788017281 | 18.89° C | 95% | 1007 hPa | 0.25 mm | - | 150 W/m² | - |
| 1788017220 | 18.89° C | 95% | 1007.1 hPa | 0.25 mm | - | 150 W/m² | - |
| 1788017161 | 18.89° C | 95% | 1007 hPa | 0.25 mm | - | 134 W/m² | - |
* Rain latest hour (hover to see other rain measurements)
** Current wind speed in m/s (hover to see current wind gust speed)